This demonstration page uses our WeatherBlox Daily Observations layout. Learn more.

41.55636, -103.73856

Hourly Observations for May 17, 2019

Temp ( °F °C ) Dew Point ( °F °C ) Humidity (%) Winds ( mph kmh ) Pressure ( in mb ) Visibility ( mi km ) Precip ( " mm )
12:56 am 00:56 undefined 73 22.6 42 5.4 33 33 ESE 16 26 29.58 1002 10 16.0934 0 0
1:56 am 01:56 Mostly Clear with Thunderstorms 65 18.6 49 9.7 56 56 S 14 22 29.61 1003 8 12.87472 0.02 0.508
2:56 am 02:56 undefined 59 14.9 47 8.5 66 66 E 10 17 29.6 1002 10 16.0934 0.02 0.508
3:56 am 03:56 undefined 59 15.2 50 10.2 72 72 E 16 26 29.6 1002 10 16.0934 0 0
4:56 am 04:56 undefined 58 14.2 52 11.2 82 82 ESE 12 19 29.59 1002 10 16.0934 0 0
5:56 am 05:56 undefined 55 12.6 51 10.3 86 86 ESE 10 17 29.59 1002 10 16.0934 0 0
6:56 am 06:56 undefined 54 12.1 51 10.7 91 91 E 13 20 29.57 1001 10 16.0934 0 0
8:56 am 08:56 undefined 53 11.6 51 10.6 94 94 E 13 20 29.55 1001 9 14.48406 0 0
9:56 am 09:56 Mostly Clear with Mist and Fog 52 11.3 51 10.6 96 96 ENE 8 13 29.54 1000 2.75 4.425685 0 0
11:56 am 11:56 Partly Cloudy with Fog 52 10.9 51 10.3 96 96 E 12 19 29.51 999 5 8.0467 0 0
1:56 pm 13:56 Partly Cloudy with Light Rain 50 9.8 49 9.3 97 97 NE 8 13 29.55 1001 1 1.60934 0 0
2:56 pm 14:56 Partly Cloudy with Light Rain 49 9.5 48 9 97 97 NE 10 17 29.54 1001 5 8.0467 0.01 0.254
3:56 pm 15:56 Partly Cloudy with Fog 50 9.8 49 9.3 97 97 ENE 10 17 29.54 1000 5 8.0467 0 0
4:56 pm 16:56 Partly Cloudy with Mist and Fog 51 10.4 50 10 97 97 E 10 17 29.54 1000 2.25 3.621015 0 0
5:56 pm 17:56 undefined 53 11.4 51 10.7 96 96 ENE 6 9 29.54 1001 10 16.0934 0 0
6:58 pm 18:58 Partly Cloudy with Mist and Fog 51 10.8 50 9.9 94 94 ENE 8 13 29.51 999 6 9.65604 0 0
8:58 pm 20:58 undefined 51 10.7 48 8.9 89 89 NE 10 17 29.52 1000 10 16.0934 0 0
9:58 pm 21:58 Partly Cloudy with Light Rain 48 8.9 46 7.9 94 94 N 12 19 29.57 1001 7 11.26538 0.01 0.254
10:58 pm 22:58 Partly Cloudy with Rain 45 7.2 43 6.1 93 93 WNW 20 31 29.66 1004 7 11.26538 0.13 3.302
11:58 pm 23:58 Partly Cloudy with Rain/Snow 44 6.8 42 5.3 90 90 NNW 18 30 29.6 1002 4 6.43736 0.23 5.842

Powered by AerisWeather